星链-32112 (STARLINK-32112)

导读

STARLINK-32112是美国太空探索技术公司(SpaceX)星链互联网卫星星座的成员,由美国于北京时间2024年6月27日08:00发射入轨。星链系统旨在为全球用户提供低延迟、高速率的卫星互联网服务,该卫星入轨后,进一步扩充了星链星座的部署规模,提升了星座覆盖能力与服务容量。

Basic Information
目录编号:
60136
目录名称:
STARLINK-32112
国际标识:
2024-120B
轨道中心:
EARTH
卫星名称:
星链-32112
卫星全名:
星链-32112 (STARLINK-32112)
卫星状态:
在轨 (已飞行721 天)
发射日期:
2024-06-27 UTC
国别 :
美国 (US)
星等 :
--
Orbit Information
数据来源 国际轨道数据 AOE轨道数据
星历时间 2026-06-17T18:31:24+0800
15小时前
查看轨道信息
2026-06-15T04:00:00+0800
3天前
查看轨道信息
半长轴 6840.874km 6840.865km
偏心率 0.0001306 0.0001615
轨道倾角 53.160° 53.157°
近地点辐角 86.538° 80.984°
升交点赤经 216.218° 228.401°
平近点角 273.577° 280.766°
近地点 461.843km 461.623km
远地点 463.631km 463.833km
周期 93.848分钟 93.848分钟
每日圈数 15.343889 15.34392
Detailed Information
固有亮度:
5
最大亮度:
2.5
卫星平台:
Starlink V1.0
覆盖范围:
全球
运营商:
太空探索技术公司
运营商所在国:
美国
制造商(研发单位):
太空探索技术公司
制造商所在国:
美国
使用方式:
暂无
Satellite Introduction
Starlink 计划是 SpaceX 推出的全球卫星互联网项目,通过发射低轨道卫星,为全球尤其是偏远地区提供高速、低延迟的互联网服务。自 2019 年起,Starlink 已部署数千颗卫星,旨在缩小全球数字鸿沟,推动互联网普及。该项目还为军事、航空等行业提供通信支持,带来广泛经济效益。
2D Orbit Map
3D Orbit Map
Orbit Altitude Analysis Chart
Orbit Inclination Analysis Chart
Orbit Comprehensive Analysis Chart
View Comprehensive Chart